GW1765 Weather Reports


Display with metric or nautical units.
time (UTC)temp
F
wind
direction
speed
MPH
gust
MPH
rain 1hr
in
rain 24hr
in
rain mn
in
humidity
%
barometer
mb
20260902024050 60 285 5.0 11.0 0.00 0.11 0.11 72 1018.8
20260902023108 60 278 5.0 11.0 0.00 0.11 0.11 71 1019.0
20260902022044 60 240 4.0 9.0 0.00 0.11 0.11 73 1018.8
20260902021041 59 277 6.0 11.0 0.00 0.11 0.11 71 1018.9
20260902020035 59 248 4.0 8.0 0.00 0.11 0.11 71 1019.1
20260902015054 60 242 4.0 8.0 0.00 0.11 0.11 72 1019.2
20260902014030 59 273 6.0 10.0 0.01 0.11 0.11 71 1019.4
20260902013027 61 281 5.0 8.0 0.01 0.11 0.11 76 1019.5
20260902012043 60 253 5.0 11.0 0.02 0.11 0.11 79 1019.5
20260902011018 58 273 4.0 8.0 0.02 0.11 0.11 76 1019.8
20260902010138 58 252 3.0 8.0 0.02 0.11 0.11 72 1019.9
20260902005132 60 236 6.0 13.0 0.02 0.11 0.11 70 1020.0
20260902004110 61 247 7.0 11.0 0.01 0.09 0.09 69 1020.0
20260902003105 62 253 6.0 11.0 0.01 0.09 0.09 70 1020.2
20260902002143 63 253 4.0 8.0 0.00 0.08 0.08 75 1020.2
20260902001120 60 178 6.0 9.0 0.01 0.08 0.08 77 1020.3
20260902000054 59 265 5.0 11.0 0.01 0.08 0.08 76 1020.6
20260901235052 59 236 5.0 11.0 0.01 0.08 0.08 78 1020.7
20260901234047 58 218 5.0 9.0 0.01 0.08 0.08 76 1020.6
20260901233044 57 225 7.0 11.0 0.01 0.08 0.08 72 1020.6
20260901232040 59 269 5.0 11.0 0.01 0.08 0.08 71 1020.4
20260901231039 60 225 7.0 11.0 0.00 0.07 0.07 71 1020.3
20260901230033 60 248 5.0 9.0 0.00 0.07 0.07 71 1020.4
20260901225031 61 242 5.0 11.0 0.00 0.07 0.07 71 1020.5
20260901224048 61 272 5.0 11.0 0.00 0.07 0.07 75 1020.5
20260901223023 59 253 4.0 11.0 0.00 0.07 0.07 78 1020.4
20260901222019 59 254 5.0 8.0 0.00 0.07 0.07 80 1020.5
20260901221016 58 225 6.0 10.0 0.00 0.07 0.07 83 1020.5
20260901220113 58 231 4.0 10.0 0.00 0.07 0.07 86 1020.6
20260901215129 58 220 7.0 10.0 0.00 0.07 0.07 90 1020.6
20260901214105 57 229 5.0 9.0 0.00 0.07 0.07 92 1020.6
20260901213104 58 205 6.0 8.0 0.00 0.07 0.07 94 1020.6
20260901212059 57 221 5.0 8.0 0.00 0.07 0.07 95 1020.7
20260901211057 56 229 4.0 8.0 0.00 0.07 0.07 94 1020.7
20260901210055 56 213 6.0 9.0 0.00 0.07 0.07 95 1020.8
20260901205049 56 198 5.0 8.0 0.00 0.07 0.07 95 1020.7
20260901204045 0 0.0 0.0 0.00 0.07 0.07 1020.6
20260901203102 0 0.0 0.0 0.00 0.07 0.07 1020.4
20260901202038 53 180 4.0 5.0 0.00 0.07 0.07 96 1020.4
20260901201034 52 185 4.0 7.0 0.00 0.07 0.07 96 1020.3
20260901200032 52 180 3.0 4.0 0.00 0.07 0.07 95 1020.4
20260901195030 51 211 5.0 15.0 0.00 0.07 0.07 95 1020.4
20260901194024 51 112 1.0 3.0 0.00 0.07 0.07 95 1020.2
20260901193022 51 93 1.0 2.0 0.00 0.07 0.07 94 1020.0
20260901192018 51 153 0.0 2.0 0.01 0.07 0.07 94 1020.0
20260901191114 50 210 1.0 3.0 0.01 0.07 0.07 94 1020.0
20260901190113 51 217 0.0 2.0 0.01 0.07 0.07 94 1019.9
20260901185109 51 217 2.0 4.0 0.01 0.07 0.07 94 1019.8
20260901184103 51 164 1.0 4.0 0.02 0.07 0.07 94 1019.9
20260901183102 51 135 1.0 4.0 0.04 0.07 0.07 94 1019.8
20260901182058 51 216 2.0 4.0 0.02 0.06 0.06 93 1019.9
20260901181052 51 226 4.0 5.0 0.02 0.06 0.06 93 1019.7
20260901180050 51 239 3.0 9.0 0.02 0.06 0.06 93 1019.7
20260901175046 51 248 1.0 3.0 0.02 0.06 0.06 93 1019.5
20260901174042 51 135 0.0 2.0 0.01 0.05 0.05 93 1019.5
20260901173039 51 182 2.0 4.0 0.00 0.04 0.04 93 1019.5
20260901172037 51 216 3.0 6.0 0.00 0.04 0.04 93 1019.5
20260901171031 51 235 5.0 8.0 0.00 0.04 0.04 92 1019.3
20260901170048 50 247 1.0 4.0 0.00 0.04 0.04 92 1019.2
20260901165026 50 203 1.0 3.0 0.00 0.04 0.04 92 1019.1
20260901164043 50 203 1.0 2.0 0.00 0.04 0.04 92 1019.1
20260901163017 50 198 2.0 3.0 0.00 0.04 0.04 92 1019.0
20260901162117 50 225 2.0 4.0 0.00 0.04 0.04 91 1019.0
20260901161111 50 225 1.0 4.0 0.00 0.04 0.04 91 1019.0
20260901160108 50 233 3.0 8.0 0.00 0.04 0.04 91 1019.0
20260901155104 50 227 2.0 8.0 0.00 0.04 0.04 91 1018.7
20260901154100 50 231 0.0 4.0 0.00 0.04 0.04 91 1018.8
20260901153058 50 220 1.0 3.0 0.00 0.04 0.04 90 1018.7
20260901152053 50 204 2.0 4.0 0.00 0.04 0.04 90 1018.9
20260901151050 50 229 1.0 4.0 0.00 0.04 0.04 90 1019.0
20260901150046 50 245 0.0 3.0 0.00 0.04 0.04 90 1019.0
20260901145043 50 217 0.0 2.0 0.00 0.04 0.04 89 1019.2
20260901144039 51 135 0.0 2.0 0.00 0.04 0.04 89 1019.2
20260901143057 51 270 0.0 2.0 0.01 0.04 0.04 88 1019.3
20260901142032 51 237 2.0 5.0 0.01 0.04 0.04 88 1019.5
20260901141028 51 268 2.0 4.0 0.01 0.04 0.04 87 1019.5
20260901140045 50 191 2.0 5.0 0.02 0.04 0.04 86 1019.5
20260901135043 50 203 7.0 11.0 0.02 0.04 0.04 85 1019.6
20260901134018 50 220 8.0 14.0 0.04 0.04 0.04 84 1019.6
20260901133115 50 212 3.0 5.0 0.02 0.02 0.02 84 1019.5
20260901132111 50 218 4.0 7.0 0.02 0.02 0.02 83 1019.6
20260901131108 50 226 4.0 9.0 0.02 0.02 0.02 83 1019.6
20260901130105 50 180 4.0 7.0 0.01 0.01 0.01 82 1019.6
20260901125101 50 196 3.0 11.0 0.01 0.01 0.01 82 1019.7
20260901124057 50 168 1.0 4.0 0.00 0.00 0.00 82 1019.7
20260901123115 50 177 2.0 4.0 0.00 0.00 0.00 82 1019.6
20260901122052 50 211 2.0 4.0 0.00 0.00 0.00 81 1019.6
20260901121047 49 213 4.0 7.0 0.00 0.00 0.00 81 1019.6
20260901120043 49 270 3.0 6.0 0.00 0.00 0.00 81 1019.6
20260901115042 49 250 4.0 7.0 0.00 0.00 0.00 81 1019.5
20260901114057 49 221 5.0 8.0 0.00 0.01 0.00 81 1019.4
20260901113053 50 223 4.0 6.0 0.00 0.04 0.00 81 1019.3
20260901112031 50 215 5.0 8.0 0.00 0.04 0.00 81 1019.3
20260901111026 50 192 5.0 8.0 0.00 0.04 0.00 80 1019.3
20260901110103 49 189 5.0 8.0 0.00 0.04 0.00 80 1019.3
20260901105019 49 189 6.0 10.0 0.00 0.04 0.00 80 1019.4
20260901104018 49 180 7.0 10.0 0.00 0.04 0.00 80 1019.3
20260901103112 49 194 9.0 13.0 0.00 0.04 0.00 81 1019.4
20260901102151 50 199 11.0 16.0 0.00 0.04 0.00 81 1019.5
20260901101105 49 211 9.0 15.0 0.00 0.04 0.00 81 1019.5
20260901095058 50 253 10.0 14.0 0.00 0.04 0.00 82 1019.3
20260901094055 50 230 11.0 17.0 0.00 0.04 0.00 82 1019.2
20260901093053 49 228 8.0 12.0 0.00 0.05 0.00 81 1019.0
20260901092048 49 219 7.0 11.0 0.00 0.06 0.00 79 1018.8
20260901091044 49 200 6.0 10.0 0.00 0.08 0.00 78 1018.8
20260901090041 49 200 4.0 6.0 0.00 0.08 0.00 76 1018.8
20260901085037 49 183 3.0 4.0 0.00 0.08 0.00 75 1019.0
20260901084056 50 231 5.0 8.0 0.00 0.08 0.00 74 1018.9
20260901083052 50 213 8.0 13.0 0.00 0.08 0.00 73 1018.9
20260901082049 50 180 6.0 8.0 0.00 0.08 0.00 73 1018.7
20260901081045 50 148 5.0 8.0 0.00 0.08 0.00 73 1018.7
20260901080020 50 185 8.0 11.0 0.00 0.08 0.00 73 1018.7
20260901075018 50 167 9.0 13.0 0.00 0.08 0.00 73 1018.6
20260901074136 50 195 11.0 14.0 0.00 0.08 0.00 74 1018.6
20260901073109 50 200 13.0 16.0 0.00 0.08 0.00 74 1018.6
20260901072108 51 204 12.0 17.0 0.00 0.08 0.00 75 1018.4
20260901071104 51 214 13.0 18.0 0.00 0.08 0.00 75 1018.3
20260901070059 51 204 12.0 18.0 0.00 0.08 0.00 76 1018.1
20260901065058 51 216 12.0 19.0 0.00 0.08 0.00 76 1017.9
20260901064054 51 227 10.0 15.0 0.00 0.08 0.00 75 1017.8
20260901063111 51 258 11.0 19.0 0.00 0.08 0.00 74 1017.6
20260901062046 51 215 9.0 14.0 0.00 0.08 0.00 73 1017.6
20260901061043 51 205 10.0 15.0 0.00 0.08 0.00 73 1017.4
20260901060038 51 192 10.0 15.0 0.00 0.08 0.00 72 1017.3
20260901055036 52 207 11.0 16.0 0.00 0.08 0.00 71 1017.4
20260901054031 53 213 12.0 18.0 0.00 0.08 0.00 71 1017.5
20260901053028 53 189 13.0 16.0 0.00 0.08 0.00 71 1017.3
20260901052044 54 206 14.0 22.0 0.00 0.08 0.00 70 1017.1
20260901051021 54 219 14.0 23.0 0.00 0.08 0.00 71 1017.2
20260901050018 54 225 16.0 23.0 0.00 0.08 0.00 71 1017.0
20260901045114 53 224 16.0 25.0 0.00 0.08 0.00 70 1017.0
20260901044112 54 212 17.0 23.0 0.00 0.08 0.00 70 1016.9
20260901043110 55 221 14.0 21.0 0.00 0.08 0.00 67 1016.8
20260901042104 54 197 16.0 24.0 0.00 0.08 0.00 69 1016.7
20260901041100 55 218 14.0 23.0 0.00 0.09 0.00 67 1016.7
20260901040119 54 196 17.0 23.0 0.00 0.09 0.00 66 1016.7
20260901035113 55 197 16.0 22.0 0.00 0.09 0.00 63 1016.6
20260901034049 57 225 14.0 20.0 0.00 0.09 0.00 62 1016.7
20260901033046 57 215 16.0 20.0 0.00 0.09 0.00 63 1016.6
20260901032042 55 207 16.0 22.0 0.00 0.09 0.00 62 1016.5
20260901031101 56 213 17.0 23.0 0.00 0.11 0.00 59 1016.4
20260901030035 58 218 17.0 23.0 0.00 0.11 0.00 58 1016.2
20260901025032 58 217 18.0 27.0 0.00 0.11 0.00 60 1016.1